AAL538 KRDU-KJFK

Flight info

Callsign AAL538
Flight time 1h 11m
Altitude 35000
Route HURIC4 FEBEL GUILD SAWED Q108 SIE CAMRN5
Aircraft B722/M-SDFGHRWY/C

Departure

Time 2026-05-07 01:47
Airport Raleigh-Durham International Airport (KRDU)

Arrival

Time 2026-05-07 02:58
Airport John F. Kennedy International Airport (KJFK)
Time Latitude Longitude Altitude Speed Heading
2026-05-07 00:57 35.87987 -78.79090 395 ft 0 kts 226°
2026-05-07 01:30 35.87993 -78.79082 395 ft 4 kts 227°
2026-05-07 01:31 35.88009 -78.79055 393 ft 4 kts 239°
2026-05-07 01:31 35.88018 -78.79026 395 ft 4 kts 266°
2026-05-07 01:31 35.88012 -78.79002 393 ft 2 kts 314°
2026-05-07 01:31 35.88011 -78.79001 395 ft 0 kts 315°
2026-05-07 01:37 35.88013 -78.79003 395 ft 3 kts 315°
2026-05-07 01:37 35.88044 -78.79042 395 ft 8 kts 315°
2026-05-07 01:37 35.88078 -78.79074 395 ft 7 kts 346°
2026-05-07 01:38 35.88138 -78.79040 395 ft 13 kts 43°
2026-05-07 01:38 35.88210 -78.78953 393 ft 16 kts 45°
2026-05-07 01:38 35.88295 -78.78849 392 ft 19 kts 45°
2026-05-07 01:38 35.88392 -78.78727 391 ft 21 kts 45°
2026-05-07 01:39 35.88502 -78.78592 394 ft 23 kts 45°
2026-05-07 01:39 35.88621 -78.78445 391 ft 24 kts 45°
2026-05-07 01:39 35.88731 -78.78308 394 ft 23 kts 45°
2026-05-07 01:39 35.88845 -78.78169 393 ft 23 kts 45°
2026-05-07 01:40 35.88941 -78.78051 392 ft 17 kts 48°
2026-05-07 01:40 35.88998 -78.77913 395 ft 18 kts 59°
2026-05-07 01:40 35.89072 -78.77810 395 ft 13 kts 44°
2026-05-07 01:40 35.89142 -78.77723 395 ft 15 kts 46°
2026-05-07 01:41 35.89195 -78.77657 391 ft 6 kts 39°
2026-05-07 01:41 35.89222 -78.77645 395 ft 1 kts 347°
2026-05-07 01:41 35.89228 -78.77648 395 ft 1 kts 334°
2026-05-07 01:41 35.89241 -78.77658 392 ft 4 kts 322°
2026-05-07 01:42 35.89254 -78.77671 395 ft 0 kts 319°
2026-05-07 01:43 35.89260 -78.77678 395 ft 7 kts 318°
2026-05-07 01:44 35.89302 -78.77730 393 ft 9 kts 314°
2026-05-07 01:44 35.89356 -78.77797 396 ft 8 kts 314°
2026-05-07 01:44 35.89350 -78.77848 393 ft 7 kts 226°
2026-05-07 01:44 35.89348 -78.77850 396 ft 0 kts 226°
2026-05-07 01:46 35.89268 -78.77952 392 ft 49 kts 225°
2026-05-07 01:47 35.88844 -78.78467 395 ft 120 kts 225°
2026-05-07 01:47 35.88149 -78.79351 629 ft 153 kts 227°
2026-05-07 01:47 35.87435 -78.80313 1367 ft 154 kts 227°
2026-05-07 01:47 35.86700 -78.81294 2072 ft 157 kts 227°
2026-05-07 01:48 35.85954 -78.82278 2789 ft 157 kts 226°
2026-05-07 01:48 35.85242 -78.83293 3536 ft 157 kts 225°
2026-05-07 01:48 35.84513 -78.84372 4102 ft 171 kts 226°
2026-05-07 01:48 35.83665 -78.85525 4581 ft 192 kts 227°
2026-05-07 01:49 35.82650 -78.86798 5034 ft 225 kts 226°
2026-05-07 01:49 35.81459 -78.88253 5505 ft 254 kts 226°
2026-05-07 01:49 35.80151 -78.89833 6042 ft 267 kts 226°
2026-05-07 01:49 35.78829 -78.91430 6579 ft 269 kts 226°
2026-05-07 01:50 35.77460 -78.93059 7037 ft 275 kts 226°
2026-05-07 01:50 35.76082 -78.94689 7684 ft 276 kts 226°
2026-05-07 01:50 35.74681 -78.96340 8200 ft 282 kts 226°
2026-05-07 01:50 35.73255 -78.98017 8793 ft 285 kts 226°
2026-05-07 01:51 35.71810 -78.99707 9341 ft 289 kts 226°
2026-05-07 01:51 35.70334 -79.01413 9912 ft 292 kts 226°
2026-05-07 01:51 35.68621 -79.02805 10401 ft 304 kts 205°
2026-05-07 01:51 35.66471 -79.03108 10784 ft 326 kts 179°
2026-05-07 01:52 35.64266 -79.02139 11082 ft 352 kts 153°
2026-05-07 01:52 35.62404 -79.00084 11437 ft 367 kts 139°
2026-05-07 01:52 35.60818 -78.97560 11760 ft 381 kts 122°
2026-05-07 01:52 35.59838 -78.94565 11985 ft 377 kts 106°
2026-05-07 01:53 35.59535 -78.91383 11983 ft 374 kts 89°
2026-05-07 01:53 35.59902 -78.88247 11996 ft 370 kts 72°
2026-05-07 01:53 35.60896 -78.85335 12000 ft 374 kts 58°
2026-05-07 01:53 35.62284 -78.82602 12000 ft 379 kts 52°
2026-05-07 01:54 35.63878 -78.79989 12009 ft 385 kts 48°
2026-05-07 01:54 35.65543 -78.77383 12021 ft 391 kts 49°
2026-05-07 01:54 35.67153 -78.74658 12019 ft 397 kts 52°
2026-05-07 01:54 35.68719 -78.71832 12016 ft 402 kts 53°
2026-05-07 01:55 35.70340 -78.69003 12004 ft 405 kts 51°
2026-05-07 01:55 35.71980 -78.66257 12055 ft 397 kts 50°
2026-05-07 01:55 35.73588 -78.63541 12166 ft 388 kts 51°
2026-05-07 01:55 35.75121 -78.60878 12307 ft 379 kts 51°
2026-05-07 01:56 35.76666 -78.58201 12495 ft 386 kts 51°
2026-05-07 01:56 35.78221 -78.55534 13336 ft 381 kts 51°
2026-05-07 01:56 35.79777 -78.52861 13871 ft 387 kts 51°
2026-05-07 01:56 35.81348 -78.50147 14427 ft 390 kts 51°
2026-05-07 01:57 35.82928 -78.47416 14865 ft 393 kts 50°
2026-05-07 01:57 35.84519 -78.44667 15319 ft 396 kts 50°
2026-05-07 01:57 35.86123 -78.41894 15732 ft 399 kts 50°
2026-05-07 01:57 35.87736 -78.39103 16165 ft 400 kts 50°
2026-05-07 01:58 35.89359 -78.36299 16583 ft 403 kts 50°
2026-05-07 01:58 35.90903 -78.33399 17005 ft 409 kts 58°
2026-05-07 01:58 35.91937 -78.30080 17367 ft 421 kts 73°
2026-05-07 01:58 35.92507 -78.26509 17712 ft 427 kts 79°
2026-05-07 01:59 35.92800 -78.22840 18266 ft 433 kts 84°
2026-05-07 01:59 35.93020 -78.19115 18965 ft 436 kts 82°
2026-05-07 01:59 35.93386 -78.15402 19627 ft 439 kts 79°
2026-05-07 01:59 35.93828 -78.11663 20249 ft 443 kts 80°
2026-05-07 02:00 35.94196 -78.07864 20853 ft 447 kts 82°
2026-05-07 02:00 35.94505 -78.04033 21410 ft 452 kts 83°
2026-05-07 02:00 35.94855 -78.00171 22077 ft 455 kts 82°
2026-05-07 02:00 35.95250 -77.96284 22738 ft 459 kts 82°
2026-05-07 02:01 35.95723 -77.92371 23266 ft 463 kts 75°
2026-05-07 02:01 35.96772 -77.88622 23898 ft 461 kts 63°
2026-05-07 02:01 35.98303 -77.85153 24485 ft 461 kts 56°
2026-05-07 02:01 36.00076 -77.81845 24959 ft 464 kts 51°
2026-05-07 02:02 36.01998 -77.78626 25503 ft 466 kts 49°
2026-05-07 02:02 36.03906 -77.75366 26016 ft 472 kts 52°
2026-05-07 02:02 36.05719 -77.71956 26491 ft 477 kts 54°
2026-05-07 02:02 36.07532 -77.68500 26932 ft 481 kts 52°
2026-05-07 02:03 36.09433 -77.65084 27391 ft 483 kts 51°
2026-05-07 02:03 36.11372 -77.61665 27800 ft 487 kts 51°
2026-05-07 02:03 36.13277 -77.58186 28208 ft 492 kts 52°
2026-05-07 02:03 36.15176 -77.54647 28593 ft 495 kts 52°
2026-05-07 02:04 36.17106 -77.51107 28971 ft 498 kts 51°
2026-05-07 02:04 36.19074 -77.47553 29337 ft 501 kts 51°
2026-05-07 02:04 36.20377 -77.45190 29567 ft 504 kts 51°
2026-05-07 02:04 36.22338 -77.41583 29927 ft 507 kts 52°
2026-05-07 02:05 36.24312 -77.37931 30233 ft 511 kts 52°
2026-05-07 02:05 36.26952 -77.33089 30666 ft 514 kts 51°
2026-05-07 02:05 36.28963 -77.29410 30987 ft 517 kts 51°
2026-05-07 02:05 36.31027 -77.25760 31227 ft 517 kts 45°
2026-05-07 02:06 36.33464 -77.22530 31548 ft 510 kts 38°
2026-05-07 02:06 36.35209 -77.20483 31747 ft 510 kts 35°
2026-05-07 02:06 36.37883 -77.17618 32075 ft 509 kts 33°
2026-05-07 02:06 36.40600 -77.14769 32388 ft 512 kts 34°
2026-05-07 02:07 36.43244 -77.11781 32666 ft 517 kts 36°
2026-05-07 02:07 36.48534 -77.05696 33209 ft 518 kts 33°
2026-05-07 02:07 36.51245 -77.02744 33476 ft 519 kts 33°
2026-05-07 02:08 36.53911 -76.99781 33718 ft 523 kts 34°
2026-05-07 02:08 36.56586 -76.96711 33971 ft 525 kts 35°
2026-05-07 02:08 36.59282 -76.93635 34224 ft 525 kts 34°
2026-05-07 02:08 36.62001 -76.90601 34451 ft 526 kts 33°
2026-05-07 02:09 36.64735 -76.87553 34644 ft 529 kts 33°
2026-05-07 02:09 36.67461 -76.84459 34854 ft 531 kts 34°
2026-05-07 02:09 36.72940 -76.78232 34944 ft 534 kts 33°
2026-05-07 02:10 36.78446 -76.72010 34952 ft 534 kts 34°
2026-05-07 02:10 36.83932 -76.65760 34947 ft 534 kts 34°
2026-05-07 02:11 36.89425 -76.59520 34941 ft 534 kts 34°
2026-05-07 02:11 36.94906 -76.53255 34934 ft 535 kts 34°
2026-05-07 02:12 37.00404 -76.46977 34935 ft 535 kts 34°
2026-05-07 02:12 37.05902 -76.40676 34927 ft 536 kts 34°
2026-05-07 02:13 37.11408 -76.34360 34922 ft 537 kts 34°
2026-05-07 02:13 37.16916 -76.28021 34922 ft 538 kts 34°
2026-05-07 02:14 37.22433 -76.21665 34919 ft 540 kts 34°
2026-05-07 02:14 37.27959 -76.15282 34921 ft 540 kts 34°
2026-05-07 02:15 37.33495 -76.08875 34923 ft 542 kts 34°
2026-05-07 02:15 37.39033 -76.02450 34919 ft 542 kts 34°
2026-05-07 02:16 37.44568 -75.96017 34918 ft 541 kts 34°
2026-05-07 02:16 37.50098 -75.89577 34921 ft 541 kts 34°
2026-05-07 02:17 37.55900 -75.83743 34917 ft 526 kts 24°
2026-05-07 02:17 37.62188 -75.79164 34920 ft 520 kts 19°
2026-05-07 02:18 37.68468 -75.74499 34934 ft 527 kts 23°
2026-05-07 02:18 37.74720 -75.69714 34914 ft 523 kts 20°
2026-05-07 02:19 37.80968 -75.65101 34919 ft 525 kts 22°
2026-05-07 02:19 37.87170 -75.60157 34930 ft 529 kts 25°
2026-05-07 02:20 37.93195 -75.54725 34916 ft 531 kts 26°
2026-05-07 02:20 37.99303 -75.49513 34910 ft 529 kts 25°
2026-05-07 02:21 38.05392 -75.44150 34912 ft 535 kts 26°
2026-05-07 02:21 38.11611 -75.39078 34909 ft 529 kts 21°
2026-05-07 02:22 38.17845 -75.34056 34925 ft 533 kts 24°
2026-05-07 02:22 38.24127 -75.29196 34892 ft 517 kts 14°
2026-05-07 02:23 38.27474 -75.27693 34897 ft 502 kts
2026-05-07 02:23 38.30855 -75.26750 34906 ft 495 kts 360°
2026-05-07 02:23 38.37613 -75.25532 34917 ft 490 kts 357°
2026-05-07 02:24 38.44382 -75.24036 34924 ft 496 kts
2026-05-07 02:24 38.51165 -75.22624 34910 ft 493 kts 358°
2026-05-07 02:25 38.57952 -75.21214 34914 ft 495 kts 359°
2026-05-07 02:25 38.64738 -75.19763 34903 ft 494 kts 358°
2026-05-07 02:26 38.68131 -75.18868 34938 ft 507 kts
2026-05-07 02:26 38.71459 -75.17115 34936 ft 528 kts 18°
2026-05-07 02:26 38.74618 -75.14604 34919 ft 539 kts 25°
2026-05-07 02:26 38.77646 -75.11711 34921 ft 547 kts 30°
2026-05-07 02:27 38.83523 -75.05478 34749 ft 546 kts 28°
2026-05-07 02:27 38.86556 -75.02600 34382 ft 536 kts 26°
2026-05-07 02:27 38.89559 -74.99834 33922 ft 530 kts 27°
2026-05-07 02:28 38.92472 -74.96963 33292 ft 526 kts 30°
2026-05-07 02:28 38.95317 -74.94027 32636 ft 521 kts 30°
2026-05-07 02:28 38.98127 -74.91229 32025 ft 513 kts 28°
2026-05-07 02:28 39.00998 -74.88480 31511 ft 502 kts 28°
2026-05-07 02:29 39.03741 -74.85797 31006 ft 490 kts 30°
2026-05-07 02:29 39.06391 -74.83127 30486 ft 478 kts 30°
2026-05-07 02:29 39.08979 -74.80535 29969 ft 467 kts 30°
2026-05-07 02:29 39.11509 -74.77971 29457 ft 460 kts 31°
2026-05-07 02:30 39.13917 -74.75373 28962 ft 455 kts 33°
2026-05-07 02:30 39.16285 -74.72717 28451 ft 448 kts 33°
2026-05-07 02:30 39.18649 -74.70144 27823 ft 442 kts 32°
2026-05-07 02:30 39.21028 -74.67635 27104 ft 441 kts 31°
2026-05-07 02:31 39.23377 -74.65115 26544 ft 436 kts 32°
2026-05-07 02:31 39.25667 -74.62596 26083 ft 428 kts 33°
2026-05-07 02:31 39.27914 -74.60140 25618 ft 420 kts 32°
2026-05-07 02:31 39.30145 -74.57741 25160 ft 413 kts 31°
2026-05-07 02:32 39.32338 -74.55376 24699 ft 408 kts 32°
2026-05-07 02:32 39.34488 -74.53031 24247 ft 403 kts 32°
2026-05-07 02:32 39.36622 -74.50702 23786 ft 399 kts 32°
2026-05-07 02:32 39.38739 -74.48398 23332 ft 396 kts 32°
2026-05-07 02:33 39.40837 -74.46116 22880 ft 392 kts 32°
2026-05-07 02:33 39.42916 -74.43852 22420 ft 390 kts 32°
2026-05-07 02:33 39.44983 -74.41597 21920 ft 388 kts 32°
2026-05-07 02:33 39.47038 -74.39353 21423 ft 386 kts 33°
2026-05-07 02:34 39.49087 -74.37112 20926 ft 384 kts 33°
2026-05-07 02:34 39.51121 -74.34887 20430 ft 382 kts 33°
2026-05-07 02:34 39.53146 -74.32670 19932 ft 380 kts 34°
2026-05-07 02:34 39.55159 -74.30464 19433 ft 378 kts 34°
2026-05-07 02:35 39.57160 -74.28269 18942 ft 376 kts 34°
2026-05-07 02:35 39.59114 -74.26119 18889 ft 360 kts 34°
2026-05-07 02:35 39.60979 -74.24067 18880 ft 344 kts 34°
2026-05-07 02:35 39.62766 -74.22107 18876 ft 330 kts 33°
2026-05-07 02:36 39.64483 -74.20224 18872 ft 317 kts 33°
2026-05-07 02:36 39.66135 -74.18411 18826 ft 307 kts 33°
2026-05-07 02:36 39.67786 -74.16601 18285 ft 315 kts 33°
2026-05-07 02:36 39.69479 -74.14742 17672 ft 321 kts 34°
2026-05-07 02:37 39.71184 -74.12852 17068 ft 325 kts 35°
2026-05-07 02:37 39.72923 -74.10930 16468 ft 332 kts 35°
2026-05-07 02:37 39.74696 -74.08978 15918 ft 335 kts 35°
2026-05-07 02:37 39.76475 -74.07010 15438 ft 337 kts 36°
2026-05-07 02:38 39.78244 -74.05049 14955 ft 341 kts 36°
2026-05-07 02:38 39.80081 -74.03018 14459 ft 344 kts 36°
2026-05-07 02:38 39.81883 -74.01023 13976 ft 346 kts 36°
2026-05-07 02:38 39.83728 -73.99000 13534 ft 345 kts 33°
2026-05-07 02:39 39.85685 -73.97257 13184 ft 337 kts 25°
2026-05-07 02:39 39.87742 -73.95861 12897 ft 330 kts 20°
2026-05-07 02:39 39.89796 -73.94580 12627 ft 326 kts 20°
2026-05-07 02:39 39.91797 -73.93196 12351 ft 324 kts 24°
2026-05-07 02:40 39.93747 -73.91745 12067 ft 322 kts 24°
2026-05-07 02:40 39.95693 -73.90344 11782 ft 318 kts 23°
2026-05-07 02:40 39.97638 -73.88991 11515 ft 316 kts 22°
2026-05-07 02:40 39.99563 -73.87639 11263 ft 313 kts 23°
2026-05-07 02:41 40.01466 -73.86264 11015 ft 312 kts 25°
2026-05-07 02:41 40.03275 -73.84706 10779 ft 312 kts 33°
2026-05-07 02:41 40.04951 -73.82931 10596 ft 308 kts 37°
2026-05-07 02:41 40.06595 -73.81176 10469 ft 301 kts 34°
2026-05-07 02:42 40.08246 -73.79553 10381 ft 293 kts 32°
2026-05-07 02:42 40.09863 -73.77987 10306 ft 286 kts 33°
2026-05-07 02:42 40.11420 -73.76425 10269 ft 279 kts 34°
2026-05-07 02:42 40.12965 -73.74863 10226 ft 287 kts 33°
2026-05-07 02:43 40.14598 -73.73232 10201 ft 307 kts 33°
2026-05-07 02:43 40.16384 -73.71443 10186 ft 340 kts 34°
2026-05-07 02:43 40.18303 -73.69503 10131 ft 348 kts 35°
2026-05-07 02:43 40.20192 -73.67589 10029 ft 340 kts 34°
2026-05-07 02:44 40.22050 -73.65729 9905 ft 333 kts 34°
2026-05-07 02:44 40.23886 -73.63899 9768 ft 329 kts 34°
2026-05-07 02:44 40.25689 -73.62090 9637 ft 325 kts 34°
2026-05-07 02:44 40.27473 -73.60286 9502 ft 322 kts 34°
2026-05-07 02:45 40.29238 -73.58501 9366 ft 320 kts 34°
2026-05-07 02:45 40.30991 -73.56738 9236 ft 316 kts 34°
2026-05-07 02:45 40.32831 -73.55217 9057 ft 309 kts 18°
2026-05-07 02:45 40.34851 -73.54391 8913 ft 301 kts
2026-05-07 02:46 40.36892 -73.53893 8783 ft 296 kts
2026-05-07 02:46 40.38920 -73.53498 8667 ft 294 kts
2026-05-07 02:46 40.40930 -73.53027 8544 ft 293 kts
2026-05-07 02:46 40.42924 -73.52499 8414 ft 292 kts
2026-05-07 02:47 40.44917 -73.51996 8283 ft 290 kts
2026-05-07 02:47 40.46906 -73.51530 8153 ft 291 kts
2026-05-07 02:47 40.48889 -73.51058 8029 ft 290 kts
2026-05-07 02:47 40.50871 -73.50565 7909 ft 289 kts
2026-05-07 02:48 40.52851 -73.50075 7773 ft 289 kts
2026-05-07 02:48 40.54827 -73.49599 7655 ft 289 kts
2026-05-07 02:48 40.56806 -73.49117 7523 ft 290 kts
2026-05-07 02:48 40.58785 -73.48625 7399 ft 289 kts
2026-05-07 02:49 40.60732 -73.48141 7280 ft 288 kts
2026-05-07 02:49 40.62706 -73.47661 7139 ft 289 kts
2026-05-07 02:49 40.64709 -73.47166 7019 ft 290 kts
2026-05-07 02:49 40.66663 -73.46687 6901 ft 290 kts
2026-05-07 02:50 40.68633 -73.46105 6785 ft 292 kts 13°
2026-05-07 02:50 40.70524 -73.45092 6678 ft 295 kts 23°
2026-05-07 02:50 40.72381 -73.43958 6516 ft 292 kts 12°
2026-05-07 02:50 40.74361 -73.43606 6279 ft 284 kts 354°
2026-05-07 02:51 40.76281 -73.44019 5949 ft 277 kts 336°
2026-05-07 02:51 40.77987 -73.45123 5541 ft 272 kts 320°
2026-05-07 02:51 40.79372 -73.46787 5126 ft 266 kts 304°
2026-05-07 02:51 40.80439 -73.48764 4725 ft 263 kts 297°
2026-05-07 02:52 40.81053 -73.50141 4465 ft 262 kts 295°
2026-05-07 02:52 40.81786 -73.52304 4033 ft 256 kts 280°
2026-05-07 02:52 40.81938 -73.54626 3580 ft 254 kts 263°
2026-05-07 02:52 40.81614 -73.56897 3195 ft 252 kts 255°
2026-05-07 02:53 40.81223 -73.59129 3007 ft 243 kts 256°
2026-05-07 02:53 40.80867 -73.61237 2997 ft 229 kts 256°
2026-05-07 02:53 40.80318 -73.63104 2956 ft 211 kts 230°
2026-05-07 02:53 40.79177 -73.64188 2991 ft 197 kts 211°
2026-05-07 02:54 40.77994 -73.64964 2994 ft 185 kts 211°
2026-05-07 02:54 40.76877 -73.65774 2814 ft 177 kts 214°
2026-05-07 02:54 40.75872 -73.66593 2567 ft 163 kts 210°
2026-05-07 02:54 40.74925 -73.67332 2347 ft 152 kts 207°
2026-05-07 02:55 40.74063 -73.68006 2142 ft 137 kts 207°
2026-05-07 02:55 40.73286 -73.68621 1981 ft 124 kts 205°
2026-05-07 02:55 40.72553 -73.69189 1818 ft 120 kts 206°
2026-05-07 02:55 40.71826 -73.69770 1686 ft 131 kts 209°
2026-05-07 02:56 40.71002 -73.70428 1530 ft 144 kts 208°
2026-05-07 02:56 40.70120 -73.71106 1334 ft 148 kts 210°
2026-05-07 02:56 40.69230 -73.71800 1125 ft 149 kts 212°
2026-05-07 02:56 40.68340 -73.72508 921 ft 149 kts 211°
2026-05-07 02:57 40.67452 -73.73203 703 ft 146 kts 212°
2026-05-07 02:57 40.66603 -73.73878 479 ft 141 kts 212°
2026-05-07 02:57 40.65766 -73.74535 281 ft 140 kts 212°
2026-05-07 02:57 40.64901 -73.75208 151 ft 148 kts 211°
2026-05-07 02:58 40.64022 -73.75877 41 ft 142 kts 211°
2026-05-07 02:58 40.63272 -73.76448 25 ft 103 kts 211°
2026-05-07 02:58 40.62755 -73.76869 27 ft 67 kts 210°
2026-05-07 02:58 40.62584 -73.77028 28 ft 17 kts 249°
2026-05-07 02:59 40.62588 -73.77179 28 ft 17 kts 295°
2026-05-07 02:59 40.62683 -73.77253 28 ft 17 kts 348°
2026-05-07 02:59 40.62792 -73.77208 27 ft 17 kts 33°
2026-05-07 02:59 40.62882 -73.77136 27 ft 15 kts 30°
2026-05-07 03:00 40.62966 -73.77090 26 ft 11 kts 346°
2026-05-07 03:00 40.63012 -73.77157 29 ft 9 kts 302°
2026-05-07 03:00 40.63044 -73.77228 30 ft 9 kts 300°
2026-05-07 03:00 40.63079 -73.77302 31 ft 10 kts 302°
2026-05-07 03:01 40.63121 -73.77389 31 ft 12 kts 302°
2026-05-07 03:01 40.63159 -73.77479 33 ft 11 kts 298°
2026-05-07 03:01 40.63202 -73.77572 33 ft 13 kts 302°
2026-05-07 03:01 40.63259 -73.77690 31 ft 17 kts 302°
2026-05-07 03:02 40.63310 -73.77812 31 ft 13 kts 300°
2026-05-07 03:02 40.63361 -73.77929 28 ft 17 kts 299°
2026-05-07 03:02 40.63423 -73.78077 27 ft 19 kts 299°
2026-05-07 03:02 40.63492 -73.78227 28 ft 20 kts 304°
2026-05-07 03:03 40.63568 -73.78378 31 ft 19 kts 298°
2026-05-07 03:03 40.63633 -73.78534 32 ft 20 kts 300°
2026-05-07 03:03 40.63705 -73.78695 32 ft 21 kts 300°
2026-05-07 03:03 40.63784 -73.78871 29 ft 24 kts 302°
2026-05-07 03:04 40.63875 -73.79066 26 ft 26 kts 301°
2026-05-07 03:04 40.63970 -73.79279 25 ft 26 kts 300°
2026-05-07 03:04 40.64031 -73.79414 26 ft 15 kts 304°
2026-05-07 03:04 40.64113 -73.79498 26 ft 15 kts 347°
2026-05-07 03:05 40.64216 -73.79502 28 ft 15 kts
2026-05-07 03:05 40.64326 -73.79493 28 ft 16 kts
2026-05-07 03:05 40.64440 -73.79495 28 ft 15 kts 355°
2026-05-07 03:05 40.64530 -73.79505 27 ft 9 kts 354°
2026-05-07 03:06 40.64584 -73.79518 27 ft 4 kts
2026-05-07 03:06 40.64600 -73.79501 27 ft 4 kts 49°
2026-05-07 03:06 40.64604 -73.79494 27 ft 0 kts 40°
2026-05-07 03:06 40.64606 -73.79492 27 ft 1 kts 33°
2026-05-07 03:07 40.64620 -73.79482 27 ft 4 kts 27°
2026-05-07 03:07 40.64648 -73.79462 27 ft 5 kts 28°
2026-05-07 03:07 40.64659 -73.79454 27 ft 0 kts 28°